Regional Weather Roundup
Issued by NWS Charleston, WV

Home | Current Version | Previous Version | Graphics & Text | Print | Product List | Glossary On
Versions: 1 2 3 4 5 6 7 8 9 10 11 12 13 14 15 16 17 18 19 20 21 22 23 24 25 26 27
000
ASUS41 KRLX 242310
RWRRLX
West Virginia Regional Weather Roundup
National Weather Service Charleston WV
700 PM EDT MON APR 24 2017

Note: "fair" indicates few or no clouds below 12,000 feet with no
significant weather and/or obstructions to visibility.

WVZ003-250000-
Northern Panhandle of West Virginia

CITY           SKY/WX    TMP DP  RH WIND       PRES   REMARKS
WHEELING       CLOUDY    53  46  77 E14       29.96F
$$

WVZ009-250000-
Northwest West Virginia

CITY           SKY/WX    TMP DP  RH WIND       PRES   REMARKS
PARKERSBURG    CLOUDY    57  50  77 E12       29.93F
$$

WVZ006-250000-
Western West Virginia

CITY           SKY/WX    TMP DP  RH WIND       PRES   REMARKS
HUNTINGTON     CLOUDY    60  53  77 E12       29.84F
$$

WVZ015-250000-
West Central West Virginia

CITY           SKY/WX    TMP DP  RH WIND       PRES   REMARKS
CHARLESTON     CLOUDY    61  51  70 NE7       29.85F
$$

WVZ022-031-250000-
North Central West Virginia

CITY           SKY/WX    TMP DP  RH WIND       PRES   REMARKS
CLARKSBURG     CLOUDY    53  46  77 E9        29.95S
MORGANTOWN     CLOUDY    54  45  71 E9G17     29.97F
$$

WVZ025-035-042-045-250000-
Southern West Virginia

CITY           SKY/WX    TMP DP  RH WIND       PRES   REMARKS
BECKLEY        CLOUDY    52  49  89 NE6       29.88S
LOGAN          CLOUDY    59  52  77 E8        29.84F
BLUEFIELD      CLOUDY    49  48  97 E7        29.87S FOG
LEWISBURG      CLOUDY    50  47  90 NE9       29.90S FOG
$$

WVZ047-250000-
Northern Mountains of West Virginia

CITY           SKY/WX    TMP DP  RH WIND       PRES   REMARKS
ELKINS         LGT RAIN  52  43  71 E8G16     29.96R
$$

WVZ052-250000-
Eastern Panhandle of West Virginia

CITY           SKY/WX    TMP DP  RH WIND       PRES   REMARKS
MARTINSBURG    LGT RAIN  51  48  89 VRB6      30.04S FOG
PETERSBURG     LGT RAIN  52  50  92 N5        30.04S
$$




USA.gov is the U.S. government's official web portal to all federal, state and local government web resources and services.